• MPC Preparation (Info)

  • MPEC 2013-Q48 : 2013 QD11

    The following Minor Planet Electronic Circular may be linked-to from your own Web pages, but must not otherwise be redistributed electronically.

    A form allowing access to any MPEC is at the bottom of this page.


    Read MPEC 2013-Q47 Read MPEC 2013-Q49


    M.P.E.C. 2013-Q48                                Issued 2013 Aug. 29, 19:26 UT
    
         The Minor Planet Electronic Circulars contain information on unusual
             minor planets and routine data on comets.  They are published
       on behalf of Commission 20 of the International Astronomical Union by the
              Minor Planet Center, Smithsonian Astrophysical Observatory,
                              Cambridge, MA 02138, U.S.A.
    
                 Prepared using the Tamkin Foundation Computer Network
    
                                  MPC@CFA.HARVARD.EDU
                URL https://www.minorplanetcenter.net/    ISSN 1523-6714
    
                                       2013 QD11
    
    Observations:
         K13Q11D* C2013 08 28.22248 22 11 25.23 -05 27 02.3          19.8 VqEQ048G96
         K13Q11D  C2013 08 28.22721 22 11 28.93 -05 26 45.6          19.5 VqEQ048G96
         K13Q11D  C2013 08 28.23192 22 11 32.60 -05 26 29.2          19.7 VqEQ048G96
         K13Q11D  C2013 08 28.23660 22 11 36.30 -05 26 12.6          19.8 VqEQ048G96
         K13Q11D KC2013 08 28.27007122 11 58.92 -05 24 29.4          19.8  rEQ048H21
         K13Q11D KC2013 08 28.27428922 12 02.20 -05 24 14.6          19.8  rEQ048H21
         K13Q11D KC2013 08 28.27835922 12 05.36 -05 23 59.7          19.8  rEQ048H21
         K13Q11D  C2013 08 28.37134 22 13 20.88 -05 18 14.5          19.5 VqEQ048G96
         K13Q11D  C2013 08 28.37387 22 13 22.84 -05 18 05.8          19.6 VqEQ048G96
         K13Q11D  C2013 08 28.37635 22 13 24.77 -05 17 56.9          19.9 VqEQ048G96
         K13Q11D  C2013 08 28.37890 22 13 26.76 -05 17 47.6          19.9 VqEQ048G96
         K13Q11D  C2013 08 28.46550 22 14 34.51 -05 12 38.7          19.8 VqEQ048G96
         K13Q11D  C2013 08 28.46608 22 14 35.01 -05 12 37.0                qEQ048G96
         K13Q11D  C2013 08 28.46719 22 14 35.80 -05 12 32.5                qEQ048G96
         K13Q11D KC2013 08 28.90521 22 20 38.51 -04 48 07.9          19.8 VuEQ048B86
         K13Q11D KC2013 08 28.90615 22 20 37.56 -04 47 47.4          20.1 RqEQ048A79
         K13Q11D KC2013 08 28.91025 22 20 40.67 -04 47 35.1          19.7 RqEQ048A79
         K13Q11D KC2013 08 28.91551 22 20 44.48 -04 47 18.6          20.2 RqEQ048A79
         K13Q11D KC2013 08 28.92307 22 20 51.82 -04 47 08.2          19.8 VuEQ048B86
         K13Q11D KC2013 08 28.94094 22 21 05.18 -04 46 08.9          19.9 VuEQ048B86
         K13Q11D KC2013 08 28.95574 22 21 17.20 -04 45 18.1                qEQ048J95
         K13Q11D KC2013 08 28.95972 22 21 20.10 -04 45 04.7                qEQ048J95
         K13Q11D KC2013 08 28.96566 22 21 24.57 -04 44 45.0          19.6 RqEQ048J95
         K13Q11D |C2013 08 29.14079 22 23 41.83 -04 31 39.7          20.0 VuEQ048807
         K13Q11D |C2013 08 29.14328 22 23 43.59 -04 31 31.7          20.0 VuEQ048807
         K13Q11D |C2013 08 29.14577 22 23 45.36 -04 31 23.7          20.0 VuEQ048807
         K13Q11D |C2013 08 29.14825 22 23 47.13 -04 31 15.4          20.2 VuEQ048807
         K13Q11D |C2013 08 29.15074 22 23 48.91 -04 31 07.0          20.2 VuEQ048807
         K13Q11D KC2013 08 29.22635 22 24 46.21 -04 29 55.9          19.8 RqEQ048H36
         K13Q11D KC2013 08 29.23166 22 24 49.93 -04 29 38.1          20.1 RqEQ048H36
         K13Q11D KC2013 08 29.24234 22 24 57.45 -04 29 02.5          19.4 RqEQ048H36
         K13Q11D KC2013 08 29.29803322 25 35.91 -04 26 01.5          20.1 VuEQ048H21
         K13Q11D KC2013 08 29.30207222 25 38.80 -04 25 48.2          20.4 VuEQ048H21
    
    Observer details:
    807 Cerro Tololo.  Observers T. Linder, R. Holmes.  Measurers T. Linder,
        R. Holmes, K. Baker, S. Momaly.  0.41-m f/11 Ritchey-Chretien + CCD.
    A79 Zvezdno Obshtestvo Observatory, Plana.  Observers F. Fratev, M. Minkov.
        Measurer F. Fratev.  0.35-m f/3.5 reflector + CCD.
    B86 Sternwarte Hagen.  Observers C. Hume, A. Twer, M. Klein.  0.50-m f/3.0
        Deltagraph + CCD.
    G96 Mt. Lemmon Survey.  Observer R. E. Hill.  Measurers A. Boattini,
        E. J. Christensen, A. R. Gibbs, A. D. Grauer, R. E. Hill, J. A. Johnson,
        R. A. Kowalski, S. M. Larson, R. H. McNaught, F. C. Shelly.  1.5-m
        reflector + CCD.
    H21 Astronomical Research Observatory, Westfield.  Observer R. Holmes.
        Measurers S. Foglia, L. Buzzi, H. Devore, A. Kostin, T. Linder,
        T. Lister. T, T. Lister. T. Vorobjov.  0.81-m f/4.0 astrograph + CCD.
    H36 Sandlot Observatory, Scranton.  Observer G. Hug.  0.56-m reflector + CCD.
    J95 Great Shefford.  Observer P. Birtwhistle.  0.40-m f/6.0 Schmidt-Cassegrain
        + CCD.
    
    Orbital elements:
    2013 QD11                                                Earth MOID = 0.0281 AU
    Epoch 2013 Nov. 4.0 TT = JDT 2456600.5                  MPC
    M  27.51198              (2000.0)            P               Q
    n   0.32335352     Peri.  107.34892     +0.71186499     +0.70231093
    a   2.1022498      Node   208.03857     -0.64656655     +0.65382117
    e   0.5040721      Incl.    0.33567     -0.27422606     +0.28156213
    P   3.05           H   25.6           G   0.15           U   7
    Residuals in seconds of arc
    130828 G96  0.4+  0.0     130828 G96  0.5-  0.1+    130828 J95  0.6+  0.0
    130828 G96  0.1+  0.0     130828 G96  0.2+  0.2-    130829 807  0.2+  0.1+
    130828 G96  0.3-  0.2-    130828 G96  1.2-  0.3+    130829 807  0.1-  0.1-
    130828 G96  0.1+  0.1-    130828 B86  0.9-  0.2+    130829 807  0.1-  0.3-
    130828 H21  0.6+  0.1-    130828 A79  0.6-  1.9+    130829 807  0.1-  0.1-
    130828 H21  0.2+  0.4-    130828 A79  0.7+  0.4+    130829 807  0.0   0.1+
    130828 H21  0.2-  0.0     130828 A79  0.2-  0.8-    130829 H36  0.5+  0.8-
    130828 G96  0.0   0.0     130828 B86  1.2-  0.1-    130829 H36  0.4-  0.4-
    130828 G96  0.1-  0.3-    130828 B86  0.0   0.8-    130829 H36  1.3-  0.2+
    130828 G96  0.0   0.2-    130828 J95  0.4+  0.2+    130829 H21  0.3+  0.5-
    130828 G96  0.2+  0.0     130828 J95  0.4-  0.3+    130829 H21  0.7+  0.5-
    
    Ephemeris:
    2013 QD11                a,e,i = 2.10, 0.50, 0                   q = 1.0426
    Date    TT    R. A. (2000) Decl.     Delta      r     Elong.  Phase     V
    2013 07 30    15 42 13.8 -15 55 19   0.09568 1.0520   110.1    65.0    22.9
    ...
    2013 08 14    17 43 14.8 -17 02 53   0.05153 1.0431   124.5    53.1    21.2
    ...
    2013 08 22    20 19 19.7 -12 22 33   0.04353 1.0509   154.4    24.6    20.0
    ...
    2013 08 28    22 08 11.5 -05 38 43   0.05234 1.0622   173.9     5.8    19.8
    2013 08 29    22 21 49.3 -04 40 40   0.05483 1.0646   174.8     4.9    19.8
    2013 08 30    22 34 11.2 -03 47 14   0.05754 1.0670   174.7     5.0    20.0
    ...
    2013 09 05    23 27 04.2 +00 03 42   0.07721 1.0843   169.4     9.8    20.9
    ...
    2013 09 13    00 03 03.0 +02 33 27   0.1094  1.1135   168.3    10.6    21.7
    ...
    2013 09 28    00 29 26.2 +04 05 30   0.1826  1.1843   176.4     3.1    22.6
    
    A. U. Tomatic                (C) Copyright 2013 MPC           M.P.E.C. 2013-Q48
    

    Read MPEC 2013-Q47 Read MPEC 2013-Q49


    MPEC number:

    Enter an MPEC number in one of the following forms:

    • 1997-B01 (the full form)
    • J97B01 (the packed version of the full form)
    • B01 (the abbreviated form)